Location: Bruderhein
(53.8035°N, 112.9265°W)
Time: 08:22:13
(UTC+00:00)

N. Korean satellite - Pass Details

Date: 03 December 2022
Orbit: 407 x 444 km, 97.3° (Epoch: 28 January)

Event Time Altitude Azimuth Distance (km) Brightness Sun altitude
Rises 00:40:59 0° 197° (SSW) 2,457 10.7 -12.0°
Reaches altitude 10° 00:43:18 10° 213° (SSW) 1,601 10.0 -12.3°
Maximum altitude 00:46:05 22° 267° (W) 1,050 9.2 -12.7°
Drops below altitude 10° 00:48:54 10° 321° (NW) 1,632 9.5 -13.1°
Sets 00:51:18 0° 336° (NNW) 2,521 10.3 -13.4°
